DELTA 1 DEB, 12532

Orbit data source: Space-Track

DELTA 1 DEB, 12532 is space debris in SSO originally from a launch on Thu, 29 Jul 1976 UTC launched from the Air Force Western Test Range (AFWTR). Debris objects in space refer to the collection of defunct objects orbiting the Earth. Examples of debris include non-operational satellites, rocket bodies, and fragments generated from explosions, collisions, or faulty payload assembly.

Loading next visibility...
Identifier
12532, 1976-077DM
Orbit
SSO
Country
Flag of USUS
Related business
Manufacturer
Unknown
Mission
Spacecraft
Bus & Motor
Unknown
Mass
Unknown
Launch date (UTC)
1976-07-29 (49 years ago)
Launch vehicle
Unknown
Launch site
Air Force Western Test Range (AFWTR)
Object type
Payload
Rocket body
Debris
Shape & HBR
Unknown shape, 0.1 m
Radar Cross Section
Small (<0.1 m²)

Expand to show TLE details & history
Last TLE update: 11 hours ago

TLE from 11 hours ago
0 DELTA 1 DEB
1 12532U 76077DM  25301.52147932  .00001839  00000-0  75343-2 0  9999
2 12532 102.1199 278.1846 0247791  23.6381  95.7648 12.77751963351216
Epoch: 2025-10-28T12:30Z
TLE epoch observation values (Epoch: 2025-10-28T12:30:55.813Z)
Latitude
55.90459°
Longitude
-108.25505°
Altitude
1,383.539 km
Speed
7.162 km/s
True Right ascension
07h 46m 20s
True Declination
55° 45' 28"
Sunlit
Object was in daylight at epoch
Visualization orbit readout
Latitude
Unknown
Longitude
Unknown
Altitude
Unknown
Speed
Unknown
Apparent Right ascension
Unknown
Apparent Declination
Unknown
Sunlit
N/A
Visualization observer readout
Local Sidereal Time
19:10:30
Azimuth
Unknown
Elevation
Unknown
Doppler factor
Unknown
Orbital elements
Apogee altitude
1,539.5 km
Perigee altitude
1,156.604 km
Semi-major axis
7,726.189 km
Eccentricity
0.02478
Inclination
102.1199°
RAAN
278.1846°
Arg. of periapsis
23.6381°
True anomaly
98.58002°
Mean anomaly
95.7648°
Eccentric anomaly
97.17343°
Mean motion
3.19591 °/min
Orbital period
112.64 mins
BSTAR
0.0075343
Loading maneuver chart data...
Computing Atmospheric mass density...
Loading historical data...
Loading historical data...
Loading historical data...
Loading historical data...
Loading historical data...
Loading historical data...
Loading historical data...

Documentation

Showing up to 5 results
|